Location: Newark
(39.6867°N, 100.6772°W)
Time: 21:02:31
(UTC+00:00)

Vanguard 1 Rocket - Pass Details

Date: 26 October 2019
Orbit: 651 x 4226 km, 34.3° (Epoch: 20 November)

Event Time Altitude Azimuth Distance (km) Brightness Sun altitude
Rises 17:38:31 0° 261° (W) 5,127 11.2 36.6°
Reaches altitude 10° 17:41:12 10° 260° (W) 4,476 11.0 36.7°
Maximum altitude 17:54:51 74° 178° (S) 3,191 11.2 37.3°
Drops below altitude 10° 18:19:22 10° 100° (E) 7,382 12.2 37.8°
Sets 18:25:26 0° 99° (E) 8,471 12.4 37.8°
